AFL1233 HESH-UWLL

Flight info

Callsign AFL1233
Flight time N/A
Altitude 36000
Route SH207 DCT DELNA DCT SH642 DCT DATOK DCT SERMA DCT GENIV/N0468F330 DCT VESAR/N0467F320 DCT INPOR/N0464F330 DCT GEM DCT ADVOK DCT ATRIV DCT TBN UG67 SARPI N37 BARUS/N0461F350 N37 LURIS/K0856F350 DCT AZABI DCT BABUR/K0857F340 G242 ZG DCT LIDUS/K0867F360 N50 MOLED/K0870F350 R807 UROBO P135 DAFOS T789 NEPNI NEPNI1F
Aircraft B738/M-SDE2E3FGHIRWXY/LB1

Departure

Time 2026-04-30 12:00
Airport Sharm El Sheikh International Airport (HESH)

Arrival

Time N/A
Airport Ulyanovsk Baratayevka Airport (UWLL)
Time Latitude Longitude Altitude Speed Heading
2026-04-30 10:50 27.97627 34.38615 171 ft 0 kts 313°
2026-04-30 11:56 27.97628 34.38614 171 ft 1 kts 313°
2026-04-30 11:56 27.97634 34.38607 171 ft 2 kts 313°
2026-04-30 11:57 27.97647 34.38591 171 ft 3 kts 313°
2026-04-30 11:57 27.97667 34.38567 171 ft 5 kts 313°
2026-04-30 11:57 27.97690 34.38536 171 ft 6 kts 296°
2026-04-30 11:57 27.97678 34.38492 171 ft 7 kts 230°
2026-04-30 11:58 27.97642 34.38453 171 ft 8 kts 223°
2026-04-30 11:58 27.97593 34.38403 171 ft 11 kts 214°
2026-04-30 11:58 27.97524 34.38445 171 ft 14 kts 133°
2026-04-30 11:58 27.97452 34.38532 171 ft 16 kts 133°
2026-04-30 11:59 27.97377 34.38622 173 ft 16 kts 134°
2026-04-30 11:59 27.97315 34.38715 174 ft 13 kts 98°
2026-04-30 11:59 27.97366 34.38790 173 ft 13 kts 43°
2026-04-30 11:59 27.97542 34.38974 172 ft 68 kts 43°
2026-04-30 12:00 27.98057 34.39509 174 ft 131 kts 43°
2026-04-30 12:00 27.98862 34.40354 233 ft 179 kts 42°
2026-04-30 12:00 27.99763 34.41379 910 ft 185 kts 44°
2026-04-30 12:00 28.00660 34.42423 1737 ft 184 kts 44°
2026-04-30 12:01 28.01638 34.43466 2121 ft 207 kts 43°
2026-04-30 12:01 28.02757 34.44606 2388 ft 228 kts 42°
2026-04-30 12:01 28.04005 34.45823 2650 ft 243 kts 36°
2026-04-30 12:01 28.05581 34.46584 2981 ft 257 kts 10°
2026-04-30 12:02 28.07427 34.46863 3255 ft 276 kts
2026-04-30 12:02 28.09377 34.47116 3741 ft 286 kts
2026-04-30 12:02 28.11347 34.47388 4539 ft 281 kts
2026-04-30 12:02 28.13259 34.47677 5503 ft 274 kts
2026-04-30 12:03 28.15096 34.47956 6225 ft 275 kts
2026-04-30 12:03 28.18928 34.48552 7526 ft 280 kts
2026-04-30 12:03 28.20861 34.48854 8176 ft 282 kts
2026-04-30 12:04 28.22815 34.49160 8853 ft 284 kts
2026-04-30 12:04 28.24763 34.49468 9503 ft 287 kts
2026-04-30 12:04 28.26740 34.49782 10151 ft 288 kts
2026-04-30 12:04 28.28780 34.50107 10428 ft 305 kts
2026-04-30 12:05 28.30956 34.50453 10582 ft 325 kts
2026-04-30 12:05 28.33267 34.50821 10729 ft 343 kts
2026-04-30 12:05 28.35693 34.51210 10865 ft 361 kts
2026-04-30 12:05 28.38240 34.51620 10980 ft 377 kts
2026-04-30 12:06 28.40855 34.52042 11110 ft 391 kts
2026-04-30 12:06 28.43575 34.52483 11462 ft 396 kts
2026-04-30 12:06 28.46320 34.52927 11931 ft 399 kts
2026-04-30 12:06 28.49083 34.53374 12420 ft 401 kts
2026-04-30 12:07 28.51842 34.53854 12871 ft 404 kts
2026-04-30 12:07 28.54613 34.54522 13310 ft 407 kts 11°
2026-04-30 12:07 28.57380 34.55277 13755 ft 410 kts 12°
2026-04-30 12:07 28.60128 34.56049 14142 ft 412 kts 12°
2026-04-30 12:08 28.62922 34.56828 14535 ft 415 kts 11°
2026-04-30 12:08 28.65740 34.57600 14948 ft 417 kts 11°
2026-04-30 12:08 28.68564 34.58365 15325 ft 419 kts 11°
2026-04-30 12:08 28.71433 34.59013 15540 ft 420 kts
2026-04-30 12:09 28.74280 34.59730 16082 ft 421 kts 13°
2026-04-30 12:09 28.77102 34.60681 16411 ft 425 kts 12°
2026-04-30 12:09 28.79984 34.61502 16767 ft 427 kts 10°
2026-04-30 12:09 28.82888 34.62251 17237 ft 427 kts
2026-04-30 12:10 28.85817 34.62743 17630 ft 425 kts 358°
2026-04-30 12:10 28.88748 34.62458 18054 ft 420 kts 346°
2026-04-30 12:10 28.91546 34.61526 18389 ft 419 kts 335°
2026-04-30 12:10 28.94223 34.60216 18696 ft 421 kts 332°
2026-04-30 12:11 28.96860 34.58751 18955 ft 423 kts 330°
2026-04-30 12:11 28.99457 34.57250 19257 ft 425 kts 330°
2026-04-30 12:11 29.02109 34.55719 19587 ft 426 kts 330°
2026-04-30 12:11 29.04771 34.54206 19927 ft 428 kts 331°
2026-04-30 12:12 29.07468 34.52712 20232 ft 431 kts 331°
2026-04-30 12:12 29.10168 34.51218 20674 ft 429 kts 330°
2026-04-30 12:12 29.12840 34.49699 20971 ft 429 kts 330°
2026-04-30 12:12 29.15548 34.48239 21217 ft 432 kts 331°
2026-04-30 12:13 29.18275 34.46763 21487 ft 434 kts 331°
2026-04-30 12:13 29.20994 34.45268 21795 ft 434 kts 330°
2026-04-30 12:13 29.23718 34.43762 22067 ft 436 kts 330°
2026-04-30 12:13 29.26419 34.42268 22326 ft 437 kts 330°
2026-04-30 12:14 29.29161 34.40752 22585 ft 439 kts 330°
2026-04-30 12:14 29.31919 34.39229 22858 ft 439 kts 330°
2026-04-30 12:14 29.34669 34.37709 23145 ft 440 kts 330°
2026-04-30 12:14 29.37434 34.36183 23411 ft 441 kts 330°
2026-04-30 12:15 29.40216 34.34647 23637 ft 443 kts 330°
2026-04-30 12:15 29.42996 34.33111 23825 ft 444 kts 330°
2026-04-30 12:15 29.45780 34.31570 24016 ft 446 kts 330°
2026-04-30 12:15 29.48580 34.30021 24204 ft 447 kts 330°
2026-04-30 12:16 29.51387 34.28466 24391 ft 448 kts 330°
2026-04-30 12:16 29.54170 34.26923 24566 ft 449 kts 330°
2026-04-30 12:16 29.56993 34.25358 24743 ft 451 kts 330°
2026-04-30 12:16 29.59827 34.23786 24970 ft 451 kts 330°
2026-04-30 12:17 29.65411 34.20544 25564 ft 447 kts 328°
2026-04-30 12:17 29.68153 34.18865 25898 ft 445 kts 327°
2026-04-30 12:17 29.70876 34.17183 26150 ft 444 kts 327°
2026-04-30 12:18 29.73602 34.15500 26403 ft 445 kts 327°
2026-04-30 12:18 29.76329 34.13822 26689 ft 444 kts 327°
2026-04-30 12:18 29.79050 34.12154 26993 ft 443 kts 327°
2026-04-30 12:18 29.81771 34.10490 27292 ft 442 kts 327°
2026-04-30 12:19 29.84484 34.08834 27573 ft 442 kts 327°
2026-04-30 12:19 29.87207 34.07172 27885 ft 441 kts 327°
2026-04-30 12:19 29.89913 34.05521 28203 ft 440 kts 327°
2026-04-30 12:19 29.92617 34.03869 28524 ft 439 kts 327°
2026-04-30 12:20 29.95280 34.02242 28806 ft 438 kts 327°
2026-04-30 12:20 29.97979 34.00591 29102 ft 438 kts 327°
2026-04-30 12:20 30.00665 33.98946 29422 ft 437 kts 327°
2026-04-30 12:20 30.03349 33.97302 29743 ft 436 kts 327°
2026-04-30 12:21 30.06032 33.95658 30041 ft 436 kts 327°
2026-04-30 12:21 30.07804 33.94572 30231 ft 435 kts 327°
2026-04-30 12:21 30.10465 33.92940 30562 ft 432 kts 327°
2026-04-30 12:21 30.13150 33.91292 30840 ft 431 kts 326°
2026-04-30 12:22 30.15764 33.89686 31054 ft 431 kts 326°
2026-04-30 12:22 30.18421 33.88052 31273 ft 431 kts 326°
2026-04-30 12:22 30.21067 33.86424 31511 ft 430 kts 326°
2026-04-30 12:22 30.23704 33.84801 31779 ft 429 kts 326°
2026-04-30 12:23 30.26341 33.83178 32011 ft 428 kts 326°
2026-04-30 12:23 30.28972 33.81557 32219 ft 428 kts 326°
2026-04-30 12:23 30.31599 33.79937 32428 ft 428 kts 326°
2026-04-30 12:23 30.34226 33.78316 32670 ft 427 kts 326°
2026-04-30 12:24 30.36842 33.76702 32912 ft 426 kts 326°
2026-04-30 12:24 30.39452 33.75090 33128 ft 425 kts 326°
2026-04-30 12:24 30.42031 33.73496 33321 ft 425 kts 326°
2026-04-30 12:24 30.44643 33.71881 33547 ft 424 kts 326°
2026-04-30 12:25 30.47243 33.70271 33734 ft 424 kts 326°
2026-04-30 12:25 30.49847 33.68658 33914 ft 424 kts 326°
2026-04-30 12:25 30.52449 33.67046 34120 ft 423 kts 326°
2026-04-30 12:25 30.55042 33.65440 34307 ft 422 kts 326°
2026-04-30 12:26 30.57634 33.63832 34425 ft 423 kts 326°
2026-04-30 12:26 30.60227 33.62221 34525 ft 423 kts 326°
2026-04-30 12:26 30.62826 33.60606 34682 ft 423 kts 326°
2026-04-30 12:26 30.65425 33.58992 34835 ft 422 kts 326°
2026-04-30 12:27 30.68011 33.57383 34958 ft 423 kts 325°
2026-04-30 12:27 30.70610 33.55766 35061 ft 423 kts 326°
2026-04-30 12:27 30.73174 33.54170 35166 ft 424 kts 326°
2026-04-30 12:27 30.75778 33.52546 35263 ft 425 kts 326°
2026-04-30 12:28 30.78391 33.50917 35366 ft 426 kts 326°
2026-04-30 12:28 30.81003 33.49288 35533 ft 425 kts 326°
2026-04-30 12:28 30.83610 33.47662 35716 ft 424 kts 326°
2026-04-30 12:28 30.86200 33.46046 35889 ft 422 kts 326°
2026-04-30 12:29 30.88801 33.44421 36002 ft 422 kts 326°
2026-04-30 12:29 30.91392 33.42801 36078 ft 422 kts 326°
2026-04-30 12:29 30.96558 33.39565 36095 ft 425 kts 326°
2026-04-30 12:30 31.01803 33.36276 36101 ft 429 kts 326°
2026-04-30 12:30 31.07078 33.32966 36108 ft 432 kts 326°
2026-04-30 12:31 31.12383 33.29634 36101 ft 434 kts 326°
2026-04-30 12:31 31.17704 33.26287 36096 ft 434 kts 326°
2026-04-30 12:32 31.22984 33.22962 36096 ft 433 kts 326°
2026-04-30 12:32 31.28288 33.19617 36092 ft 432 kts 326°
2026-04-30 12:33 31.33580 33.16301 36086 ft 432 kts 329°
2026-04-30 12:33 31.39391 33.14206 36102 ft 444 kts 344°
2026-04-30 12:34 31.45621 33.13736 36100 ft 449 kts 351°
2026-04-30 12:34 31.51827 33.13513 36096 ft 448 kts 351°
2026-04-30 12:35 31.58052 33.13241 36093 ft 446 kts 351°
2026-04-30 12:35 31.64253 33.12935 36089 ft 445 kts 351°
2026-04-30 12:36 31.70433 33.12623 36089 ft 444 kts 351°
2026-04-30 12:36 31.76583 33.12316 36087 ft 444 kts 351°
2026-04-30 12:37 31.82790 33.12366 36078 ft 454 kts
2026-04-30 12:37 31.89034 33.13659 36088 ft 456 kts
2026-04-30 12:38 31.95286 33.15041 36091 ft 457 kts
2026-04-30 12:38 32.01514 33.16382 36102 ft 457 kts
2026-04-30 12:39 32.07798 33.17704 36092 ft 458 kts
2026-04-30 12:39 32.14095 33.19019 36089 ft 459 kts
2026-04-30 12:40 32.20401 33.20338 36086 ft 460 kts
2026-04-30 12:40 32.26671 33.21651 36088 ft 461 kts
2026-04-30 12:41 32.33001 33.22980 36087 ft 462 kts
2026-04-30 12:41 32.39338 33.24313 36085 ft 462 kts
2026-04-30 12:42 32.45678 33.25649 36099 ft 462 kts
2026-04-30 12:42 32.52019 33.26986 36086 ft 462 kts
2026-04-30 12:43 32.58312 33.28315 36083 ft 461 kts
2026-04-30 12:43 32.64632 33.29652 36083 ft 461 kts
2026-04-30 12:44 32.70946 33.30989 36085 ft 460 kts
2026-04-30 12:44 32.77250 33.32326 36086 ft 460 kts
2026-04-30 12:45 32.83505 33.33655 36081 ft 459 kts
2026-04-30 12:45 32.89793 33.34992 36094 ft 458 kts
2026-04-30 12:46 32.96069 33.36329 36089 ft 458 kts
2026-04-30 12:46 33.02340 33.37666 36083 ft 457 kts
2026-04-30 12:47 33.08605 33.39005 36103 ft 457 kts
2026-04-30 12:47 33.14837 33.40337 36082 ft 457 kts
2026-04-30 12:48 33.21097 33.41678 36089 ft 457 kts
2026-04-30 12:48 33.27352 33.43020 36088 ft 457 kts
2026-04-30 12:49 33.33614 33.44365 36094 ft 457 kts
2026-04-30 12:49 33.39837 33.45704 36081 ft 457 kts
2026-04-30 12:50 33.46104 33.47054 36085 ft 458 kts
2026-04-30 12:50 33.52377 33.48408 36078 ft 458 kts
2026-04-30 12:51 33.58649 33.49764 36085 ft 458 kts
2026-04-30 12:51 33.64935 33.51124 36085 ft 458 kts
2026-04-30 12:52 33.71212 33.52485 36103 ft 459 kts
2026-04-30 12:52 33.77499 33.53849 36087 ft 459 kts
2026-04-30 12:53 33.83785 33.55216 36079 ft 459 kts
2026-04-30 12:53 33.90042 33.56579 36079 ft 459 kts
2026-04-30 12:54 33.96329 33.57950 36084 ft 459 kts
2026-04-30 12:54 34.02618 33.59323 36078 ft 459 kts
2026-04-30 12:55 34.08906 33.60699 36076 ft 459 kts
2026-04-30 12:55 34.15154 33.62067 36089 ft 459 kts
2026-04-30 12:56 34.21449 33.63448 36075 ft 459 kts
2026-04-30 12:56 34.27730 33.64828 36078 ft 458 kts
2026-04-30 12:57 34.34002 33.66208 36087 ft 458 kts
2026-04-30 12:57 34.40280 33.67591 36068 ft 458 kts
2026-04-30 12:58 34.46563 33.68978 36066 ft 459 kts
2026-04-30 12:58 34.52805 33.70358 36083 ft 459 kts
2026-04-30 12:59 34.59092 33.71750 36065 ft 459 kts
2026-04-30 12:59 34.65383 33.73144 36062 ft 459 kts
2026-04-30 13:00 34.71676 33.74543 36060 ft 460 kts
2026-04-30 13:00 34.77984 33.75945 36069 ft 460 kts
2026-04-30 13:01 34.84290 33.77349 36064 ft 461 kts
2026-04-30 13:01 34.90603 33.78758 36063 ft 461 kts
2026-04-30 13:02 34.96877 33.80160 36068 ft 461 kts
2026-04-30 13:02 35.03186 33.81572 36062 ft 461 kts
2026-04-30 13:03 35.09514 33.82991 36061 ft 461 kts
2026-04-30 13:03 35.15815 33.84405 36076 ft 460 kts
2026-04-30 13:04 35.22118 33.85823 36059 ft 460 kts
2026-04-30 13:04 35.28369 33.87231 36065 ft 459 kts
2026-04-30 13:05 35.34652 33.88648 36071 ft 459 kts
2026-04-30 13:06 35.44079 33.90779 36069 ft 459 kts
2026-04-30 13:06 35.50358 33.92201 36063 ft 458 kts
2026-04-30 13:07 35.56633 33.93624 36063 ft 458 kts
2026-04-30 13:07 35.62906 33.95050 36063 ft 458 kts
2026-04-30 13:08 35.69168 33.96475 36060 ft 458 kts
2026-04-30 13:08 35.74388 33.97664 36066 ft 458 kts
2026-04-30 13:09 35.80665 33.99097 36062 ft 459 kts
2026-04-30 13:09 35.87969 34.00767 36061 ft 459 kts
2026-04-30 13:10 35.93198 34.01893 36065 ft 458 kts
2026-04-30 13:10 35.99539 34.02666 36066 ft 457 kts
2026-04-30 13:11 36.05895 34.03280 36062 ft 458 kts
2026-04-30 13:11 36.12255 34.03951 36076 ft 458 kts
2026-04-30 13:12 36.18611 34.04669 36065 ft 459 kts
2026-04-30 13:12 36.24977 34.05401 36066 ft 459 kts
2026-04-30 13:13 36.34502 34.06496 36078 ft 458 kts
2026-04-30 13:14 36.43985 34.07585 36086 ft 458 kts
2026-04-30 13:14 36.53496 34.08681 36102 ft 457 kts
2026-04-30 13:15 36.63013 34.09780 36104 ft 457 kts
2026-04-30 13:16 36.69166 34.11649 36118 ft 462 kts 21°
2026-04-30 13:16 36.74819 34.15559 36125 ft 465 kts 29°
2026-04-30 13:17 36.83109 34.21930 36112 ft 467 kts 29°
2026-04-30 13:18 36.91450 34.28250 36134 ft 469 kts 29°
2026-04-30 13:18 36.99854 34.34578 36146 ft 471 kts 29°
2026-04-30 13:19 37.05472 34.38816 36152 ft 472 kts 29°
2026-04-30 13:19 37.11069 34.43048 36137 ft 473 kts 29°
2026-04-30 13:20 37.16719 34.47321 36171 ft 475 kts 29°
2026-04-30 13:20 37.22394 34.51629 36156 ft 476 kts 29°
2026-04-30 13:21 37.28057 34.55939 36135 ft 476 kts 29°
2026-04-30 13:22 37.36551 34.62413 36130 ft 475 kts 29°
2026-04-30 13:22 37.44966 34.68842 36131 ft 473 kts 29°
2026-04-30 13:23 37.53446 34.75336 36117 ft 475 kts 29°
2026-04-30 13:24 37.64708 34.83992 36120 ft 473 kts 29°
2026-04-30 13:25 37.75887 34.92613 36120 ft 471 kts 29°
2026-04-30 13:26 37.89844 35.03419 36101 ft 470 kts 29°
2026-04-30 13:28 38.03806 35.14278 36094 ft 473 kts 29°
2026-04-30 13:28 38.12257 35.20875 36097 ft 475 kts 29°